SWR1LK EDDF-LSZH

Flight info

Callsign SWR1LK
Flight time 0h 37m
Altitude 23000
Route ANEKI2L ANEKI Y163 NEKLO Y171 INKAM T725 LAMGO T721 RILAX
Aircraft A320/M-SDE3FGHIRWY/LB1

Departure

Time 2026-05-07 10:51
Airport Frankfurt Main Airport (EDDF)

Arrival

Time 2026-05-07 11:29
Airport Zürich Airport (LSZH)
Time Latitude Longitude Altitude Speed Heading
2026-05-07 10:13 50.04453 8.56431 356 ft 0 kts 154°
2026-05-07 10:37 50.04456 8.56429 363 ft 3 kts 154°
2026-05-07 10:38 50.04480 8.56411 362 ft 4 kts 156°
2026-05-07 10:38 50.04505 8.56398 361 ft 4 kts 178°
2026-05-07 10:38 50.04522 8.56406 356 ft 3 kts 250°
2026-05-07 10:38 50.04517 8.56387 361 ft 4 kts 250°
2026-05-07 10:39 50.04514 8.56374 359 ft 0 kts 250°
2026-05-07 10:41 50.04513 8.56368 360 ft 3 kts 250°
2026-05-07 10:42 50.04503 8.56328 359 ft 4 kts 249°
2026-05-07 10:42 50.04494 8.56289 358 ft 5 kts 249°
2026-05-07 10:42 50.04471 8.56196 357 ft 14 kts 249°
2026-05-07 10:42 50.04428 8.56049 364 ft 16 kts 226°
2026-05-07 10:43 50.04327 8.56066 358 ft 15 kts 160°
2026-05-07 10:43 50.04253 8.56001 359 ft 15 kts 251°
2026-05-07 10:43 50.04215 8.55837 355 ft 18 kts 250°
2026-05-07 10:43 50.04166 8.55635 358 ft 21 kts 249°
2026-05-07 10:44 50.04112 8.55406 352 ft 24 kts 249°
2026-05-07 10:44 50.04053 8.55163 361 ft 24 kts 250°
2026-05-07 10:44 50.03996 8.54933 357 ft 19 kts 249°
2026-05-07 10:44 50.03990 8.54906 358 ft 0 kts 250°
2026-05-07 10:46 50.03987 8.54894 355 ft 4 kts 250°
2026-05-07 10:46 50.03968 8.54807 355 ft 11 kts 250°
2026-05-07 10:46 50.03958 8.54766 353 ft 6 kts 250°
2026-05-07 10:46 50.03932 8.54654 356 ft 14 kts 250°
2026-05-07 10:47 50.03895 8.54499 355 ft 17 kts 250°
2026-05-07 10:47 50.03835 8.54319 349 ft 20 kts 232°
2026-05-07 10:47 50.03774 8.54115 353 ft 22 kts 250°
2026-05-07 10:47 50.03721 8.53916 351 ft 20 kts 244°
2026-05-07 10:48 50.03672 8.53701 344 ft 22 kts 259°
2026-05-07 10:48 50.03616 8.53467 338 ft 24 kts 250°
2026-05-07 10:48 50.03567 8.53260 338 ft 18 kts 249°
2026-05-07 10:48 50.03519 8.53062 334 ft 21 kts 250°
2026-05-07 10:49 50.03464 8.52847 337 ft 19 kts 246°
2026-05-07 10:49 50.03415 8.52642 335 ft 21 kts 251°
2026-05-07 10:49 50.03368 8.52593 335 ft 0 kts 178°
2026-05-07 10:50 50.03366 8.52593 335 ft 3 kts 178°
2026-05-07 10:51 50.03146 8.52594 333 ft 71 kts 180°
2026-05-07 10:51 50.02408 8.52603 335 ft 138 kts 180°
2026-05-07 10:51 50.01311 8.52612 549 ft 169 kts 182°
2026-05-07 10:51 50.00140 8.52610 1248 ft 168 kts 181°
2026-05-07 10:52 49.98960 8.52654 1868 ft 175 kts 180°
2026-05-07 10:52 49.97670 8.52735 2198 ft 195 kts 178°
2026-05-07 10:52 49.96246 8.52863 2580 ft 217 kts 178°
2026-05-07 10:52 49.94679 8.52990 3121 ft 233 kts 178°
2026-05-07 10:53 49.93036 8.53114 3806 ft 240 kts 178°
2026-05-07 10:53 49.91364 8.53239 3974 ft 240 kts 178°
2026-05-07 10:53 49.89676 8.53362 4189 ft 250 kts 178°
2026-05-07 10:53 49.87916 8.53485 5206 ft 249 kts 178°
2026-05-07 10:54 49.86221 8.53605 6342 ft 248 kts 178°
2026-05-07 10:54 49.84484 8.53725 7222 ft 251 kts 179°
2026-05-07 10:54 49.82733 8.53844 8148 ft 253 kts 179°
2026-05-07 10:54 49.80964 8.53962 9063 ft 255 kts 180°
2026-05-07 10:55 49.79179 8.54084 9729 ft 258 kts 181°
2026-05-07 10:55 49.77380 8.54065 10228 ft 263 kts 188°
2026-05-07 10:55 49.76564 8.53961 10281 ft 272 kts 188°
2026-05-07 10:55 49.76270 8.53923 10298 ft 275 kts 188°
2026-05-07 10:56 49.74329 8.53659 10428 ft 292 kts 188°
2026-05-07 10:56 49.72255 8.53370 10555 ft 307 kts 188°
2026-05-07 10:56 49.70039 8.53065 10803 ft 332 kts 187°
2026-05-07 10:56 49.67684 8.52745 11368 ft 345 kts 187°
2026-05-07 10:57 49.65274 8.52424 12140 ft 350 kts 186°
2026-05-07 10:57 49.62830 8.52105 12968 ft 354 kts 186°
2026-05-07 10:57 49.60587 8.51816 13693 ft 358 kts 186°
2026-05-07 10:57 49.58083 8.51489 14397 ft 363 kts 186°
2026-05-07 10:58 49.55590 8.51163 15102 ft 366 kts 186°
2026-05-07 10:58 49.53035 8.50833 15799 ft 371 kts 186°
2026-05-07 10:58 49.50450 8.50500 16498 ft 375 kts 186°
2026-05-07 10:58 49.47834 8.50164 16891 ft 382 kts 183°
2026-05-07 10:59 49.45035 8.49768 16755 ft 401 kts 186°
2026-05-07 10:59 49.43192 8.49522 17732 ft 391 kts 186°
2026-05-07 10:59 49.41938 8.49348 18189 ft 390 kts 187°
2026-05-07 10:59 49.39240 8.48984 18976 ft 389 kts 187°
2026-05-07 11:00 49.36531 8.48640 19641 ft 392 kts 187°
2026-05-07 11:00 49.33837 8.48305 20254 ft 395 kts 186°
2026-05-07 11:00 49.31068 8.48344 20837 ft 402 kts 176°
2026-05-07 11:00 49.28297 8.49131 21421 ft 408 kts 166°
2026-05-07 11:01 49.25626 8.50681 21987 ft 415 kts 155°
2026-05-07 11:01 49.23123 8.52938 22536 ft 420 kts 149°
2026-05-07 11:01 49.20642 8.55349 22924 ft 424 kts 149°
2026-05-07 11:01 49.18147 8.57761 23021 ft 428 kts 149°
2026-05-07 11:02 49.15612 8.60173 23026 ft 431 kts 152°
2026-05-07 11:02 49.12951 8.62131 23028 ft 430 kts 159°
2026-05-07 11:02 49.10198 8.63916 23024 ft 430 kts 159°
2026-05-07 11:02 49.07449 8.65696 23024 ft 430 kts 159°
2026-05-07 11:03 49.04697 8.67480 23024 ft 430 kts 159°
2026-05-07 11:03 49.01946 8.69266 23026 ft 430 kts 159°
2026-05-07 11:03 48.99191 8.71053 23025 ft 430 kts 159°
2026-05-07 11:03 48.96441 8.72834 23016 ft 429 kts 159°
2026-05-07 11:04 48.93696 8.74609 23020 ft 429 kts 159°
2026-05-07 11:04 48.90892 8.76103 23019 ft 426 kts 168°
2026-05-07 11:04 48.88970 8.76690 23022 ft 425 kts 174°
2026-05-07 11:04 48.85081 8.76876 23027 ft 421 kts 187°
2026-05-07 11:05 48.82198 8.76213 23024 ft 419 kts 193°
2026-05-07 11:05 48.79322 8.75422 23017 ft 420 kts 192°
2026-05-07 11:05 48.76450 8.74644 23014 ft 420 kts 192°
2026-05-07 11:05 48.73565 8.73869 23003 ft 421 kts 192°
2026-05-07 11:06 48.70687 8.73101 23003 ft 421 kts 192°
2026-05-07 11:06 48.68774 8.72591 22998 ft 421 kts 192°
2026-05-07 11:06 48.65882 8.71824 22999 ft 422 kts 192°
2026-05-07 11:06 48.62054 8.70811 23002 ft 422 kts 192°
2026-05-07 11:07 48.59161 8.70048 23004 ft 422 kts 192°
2026-05-07 11:07 48.56263 8.69284 23006 ft 423 kts 192°
2026-05-07 11:07 48.53366 8.68516 23009 ft 423 kts 192°
2026-05-07 11:07 48.51450 8.68006 23010 ft 423 kts 192°
2026-05-07 11:08 48.48554 8.67236 23012 ft 423 kts 192°
2026-05-07 11:08 48.45657 8.66469 23014 ft 423 kts 192°
2026-05-07 11:08 48.42758 8.65704 23016 ft 423 kts 192°
2026-05-07 11:08 48.39863 8.64940 23020 ft 423 kts 192°
2026-05-07 11:09 48.36026 8.63911 23023 ft 423 kts 192°
2026-05-07 11:09 48.34072 8.63345 23023 ft 423 kts 193°
2026-05-07 11:09 48.31192 8.62469 23019 ft 422 kts 193°
2026-05-07 11:09 48.28351 8.61576 23018 ft 423 kts 193°
2026-05-07 11:10 48.25478 8.60676 23018 ft 423 kts 193°
2026-05-07 11:10 48.22596 8.59787 23017 ft 423 kts 193°
2026-05-07 11:10 48.19713 8.58912 23024 ft 423 kts 193°
2026-05-07 11:10 48.16846 8.58050 23020 ft 423 kts 193°
2026-05-07 11:11 48.13956 8.57190 23027 ft 423 kts 193°
2026-05-07 11:11 48.11071 8.56335 23025 ft 423 kts 192°
2026-05-07 11:11 48.08187 8.55480 23039 ft 422 kts 192°
2026-05-07 11:11 48.05403 8.54655 22953 ft 419 kts 193°
2026-05-07 11:12 48.02563 8.53813 22683 ft 412 kts 192°
2026-05-07 11:12 47.99793 8.53014 22403 ft 398 kts 190°
2026-05-07 11:12 47.97101 8.52720 22145 ft 385 kts 180°
2026-05-07 11:12 47.94463 8.53123 21873 ft 377 kts 169°
2026-05-07 11:13 47.91968 8.54188 21607 ft 369 kts 159°
2026-05-07 11:13 47.89683 8.55836 21338 ft 362 kts 149°
2026-05-07 11:13 47.87606 8.57837 21119 ft 346 kts 148°
2026-05-07 11:13 47.85657 8.59726 20988 ft 324 kts 148°
2026-05-07 11:14 47.83826 8.61491 20668 ft 312 kts 148°
2026-05-07 11:14 47.82021 8.63228 20148 ft 307 kts 148°
2026-05-07 11:14 47.80241 8.64939 19585 ft 304 kts 148°
2026-05-07 11:14 47.78471 8.66641 19029 ft 302 kts 148°
2026-05-07 11:15 47.76693 8.68351 18502 ft 308 kts 148°
2026-05-07 11:15 47.74905 8.70065 18156 ft 302 kts 148°
2026-05-07 11:15 47.73149 8.71749 17556 ft 299 kts 148°
2026-05-07 11:15 47.71408 8.73424 17101 ft 295 kts 148°
2026-05-07 11:16 47.69679 8.75017 16663 ft 293 kts 156°
2026-05-07 11:16 47.67777 8.75950 16242 ft 292 kts 173°
2026-05-07 11:16 47.65796 8.76125 15871 ft 283 kts 187°
2026-05-07 11:16 47.63884 8.75611 15366 ft 276 kts 201°
2026-05-07 11:17 47.62157 8.74465 14903 ft 269 kts 214°
2026-05-07 11:17 47.60707 8.72789 14451 ft 262 kts 227°
2026-05-07 11:17 47.59584 8.70684 14005 ft 258 kts 240°
2026-05-07 11:17 47.58838 8.68293 13542 ft 254 kts 253°
2026-05-07 11:18 47.58485 8.65732 13089 ft 256 kts 265°
2026-05-07 11:18 47.58533 8.63162 12649 ft 252 kts 278°
2026-05-07 11:18 47.58970 8.60658 12182 ft 251 kts 290°
2026-05-07 11:18 47.59768 8.58371 11785 ft 251 kts 302°
2026-05-07 11:19 47.60903 8.56386 11363 ft 256 kts 314°
2026-05-07 11:19 47.62216 8.54588 10984 ft 258 kts 314°
2026-05-07 11:19 47.63504 8.52824 10816 ft 253 kts 314°
2026-05-07 11:19 47.64791 8.51062 10637 ft 250 kts 314°
2026-05-07 11:20 47.66056 8.49332 10508 ft 243 kts 314°
2026-05-07 11:20 47.67276 8.47663 10382 ft 233 kts 314°
2026-05-07 11:20 47.68445 8.46057 10264 ft 225 kts 314°
2026-05-07 11:20 47.69581 8.44496 10196 ft 226 kts 314°
2026-05-07 11:21 47.70737 8.42906 10078 ft 227 kts 314°
2026-05-07 11:21 47.71893 8.41312 9901 ft 228 kts 314°
2026-05-07 11:21 47.73064 8.39670 9468 ft 231 kts 309°
2026-05-07 11:21 47.73864 8.37693 9116 ft 219 kts 285°
2026-05-07 11:22 47.74048 8.35493 8794 ft 215 kts 263°
2026-05-07 11:22 47.73637 8.33368 8450 ft 215 kts 241°
2026-05-07 11:22 47.72714 8.31619 8106 ft 216 kts 228°
2026-05-07 11:22 47.71711 8.30039 7767 ft 211 kts 228°
2026-05-07 11:23 47.70593 8.28692 7353 ft 208 kts 211°
2026-05-07 11:23 47.69214 8.27964 6822 ft 214 kts 192°
2026-05-07 11:23 47.67749 8.28014 6522 ft 209 kts 171°
2026-05-07 11:23 47.66417 8.28783 6286 ft 206 kts 151°
2026-05-07 11:24 47.65311 8.30120 6050 ft 205 kts 140°
2026-05-07 11:24 47.64274 8.31552 5738 ft 202 kts 140°
2026-05-07 11:24 47.63247 8.32969 5460 ft 202 kts 140°
2026-05-07 11:24 47.62224 8.34378 5196 ft 200 kts 140°
2026-05-07 11:25 47.61212 8.35772 4934 ft 202 kts 140°
2026-05-07 11:25 47.60186 8.37183 4662 ft 200 kts 139°
2026-05-07 11:25 47.59163 8.38589 4388 ft 201 kts 139°
2026-05-07 11:25 47.58139 8.39997 4112 ft 200 kts 140°
2026-05-07 11:26 47.57120 8.41397 3839 ft 199 kts 140°
2026-05-07 11:26 47.56111 8.42782 3573 ft 195 kts 139°
2026-05-07 11:26 47.55158 8.44091 3341 ft 178 kts 139°
2026-05-07 11:26 47.54301 8.45269 3110 ft 160 kts 140°
2026-05-07 11:27 47.53512 8.46350 2903 ft 151 kts 139°
2026-05-07 11:27 47.52751 8.47391 2711 ft 147 kts 139°
2026-05-07 11:27 47.52027 8.48382 2511 ft 142 kts 143°
2026-05-07 11:27 47.51313 8.49369 2312 ft 141 kts 142°
2026-05-07 11:28 47.50596 8.50366 2089 ft 142 kts 140°
2026-05-07 11:28 47.49873 8.51371 1946 ft 144 kts 139°
2026-05-07 11:28 47.49120 8.52396 1729 ft 150 kts 140°
2026-05-07 11:28 47.48342 8.53448 1490 ft 153 kts 138°
2026-05-07 11:29 47.47591 8.54457 1404 ft 135 kts 139°
2026-05-07 11:29 47.47023 8.55226 1387 ft 86 kts 137°
2026-05-07 11:29 47.46671 8.55645 1397 ft 48 kts 156°
2026-05-07 11:29 47.46471 8.55715 1401 ft 24 kts 163°
2026-05-07 11:30 47.46377 8.55772 1407 ft 13 kts 145°
2026-05-07 11:30 47.46315 8.55851 1401 ft 10 kts 136°
2026-05-07 11:30 47.46271 8.55914 1402 ft 7 kts 136°
2026-05-07 11:30 47.46241 8.55954 1404 ft 4 kts 136°
2026-05-07 11:31 47.46223 8.55979 1406 ft 8 kts 138°
2026-05-07 11:31 47.46160 8.56001 1406 ft 9 kts 183°
2026-05-07 11:31 47.46089 8.55990 1407 ft 10 kts 185°
2026-05-07 11:31 47.46012 8.55979 1406 ft 13 kts 185°
2026-05-07 11:32 47.45836 8.55901 1412 ft 12 kts 199°
2026-05-07 11:32 47.45739 8.55871 1409 ft 17 kts 186°
2026-05-07 11:32 47.45609 8.55850 1412 ft 20 kts 186°
2026-05-07 11:33 47.45471 8.55811 1407 ft 12 kts 189°
2026-05-07 11:33 47.45436 8.55805 1410 ft 0 kts 186°
2026-05-07 11:33 47.45432 8.55804 1411 ft 1 kts 186°
2026-05-07 11:33 47.45428 8.55804 1407 ft 0 kts 186°
2026-05-07 11:34 47.45426 8.55803 1407 ft 0 kts 186°
2026-05-07 11:35 47.45425 8.55803 1407 ft 0 kts 186°